DW6963 Weather Reports


Display with metric or nautical units.
time (UTC)temp
F
wind
direction
speed
MPH
gust
MPH
rain 1hr
in
rain 24hr
in
rain mn
in
humidity
%
barometer
mb
20260905034453 72 0 0.0 0.0 0.00 0.00 0.00 91 1015.0
20260905033953 72 0 0.0 0.0 0.00 0.00 0.00 91 1015.1
20260905033453 72 0 0.0 0.0 0.00 0.00 0.00 91 1015.0
20260905032953 72 0 0.0 0.0 0.00 0.00 0.00 91 1015.1
20260905032453 72 0 0.0 0.0 0.00 0.00 0.00 91 1015.1
20260905031953 72 0 0.0 0.0 0.00 0.00 0.00 91 1015.0
20260905031453 72 0 0.0 0.0 0.00 0.00 0.00 91 1015.0
20260905030952 72 0 0.0 0.0 0.00 0.00 0.00 91 1015.0
20260905030452 72 0 0.0 0.0 0.00 0.00 0.00 91 1014.9
20260905025953 72 0 0.0 0.0 0.00 0.00 0.00 91 1015.0
20260905025453 72 0 0.0 0.0 0.00 0.00 0.00 91 1015.0
20260905024952 72 0 0.0 0.0 0.00 0.00 0.00 91 1015.1
20260905024453 72 0 0.0 0.0 0.00 0.00 0.00 91 1015.0
20260905022953 72 0 0.0 0.0 0.00 0.00 0.00 91 1014.9
20260905022453 71 0 0.0 0.0 0.00 0.00 0.00 91 1014.8
20260905021953 72 0 0.0 0.0 0.00 0.00 0.00 91 1014.8
20260905021453 72 0 0.0 0.0 0.00 0.00 0.00 91 1014.8
20260905020953 72 0 0.0 0.0 0.00 0.00 0.00 91 1014.8
20260905020453 72 0 0.0 0.0 0.00 0.00 0.00 90 1014.7
20260905015953 72 0 0.0 0.0 0.00 0.00 0.00 90 1014.8
20260905015453 72 0 0.0 0.0 0.00 0.00 0.00 90 1014.7
20260905014953 72 0 0.0 0.0 0.00 0.00 0.00 90 1014.6
20260905014453 72 0 0.0 0.0 0.00 0.00 0.00 90 1014.6
20260905013953 72 0 0.0 0.0 0.00 0.00 0.00 90 1014.6
20260905013453 72 0 0.0 0.0 0.00 0.00 0.00 90 1014.5
20260905012953 72 0 0.0 0.0 0.00 0.00 0.00 90 1014.6
20260905012453 72 0 0.0 0.0 0.00 0.00 0.00 90 1014.5
20260905011953 72 0 0.0 0.0 0.00 0.00 0.00 90 1014.4
20260905011453 72 0 0.0 0.0 0.00 0.00 0.00 90 1014.4
20260905010953 72 0 0.0 0.0 0.00 0.00 0.00 90 1014.3
20260905010453 73 0 0.0 0.0 0.00 0.00 0.00 89 1014.3
20260905005953 73 0 0.0 0.0 0.00 0.00 0.00 89 1014.3
20260905004953 73 0 0.0 0.0 0.00 0.00 0.00 89 1014.3
20260905004453 73 0 0.0 0.0 0.00 0.00 0.00 89 1014.1
20260905003953 73 0 0.0 0.0 0.00 0.00 0.00 89 1014.2
20260905003452 73 0 0.0 0.0 0.00 0.00 0.00 88 1014.1
20260905002953 74 0 0.0 0.0 0.00 0.00 0.00 88 1014.0
20260905002453 74 0 0.0 0.0 0.00 0.00 0.00 88 1014.0
20260905001952 74 0 0.0 0.0 0.00 0.00 0.00 87 1014.0
20260905001453 74 0 0.0 0.0 0.00 0.00 0.00 87 1014.0
20260905000953 74 0 0.0 0.0 0.00 0.00 0.00 87 1013.9
20260904210453 73 0 0.0 0.0 0.00 0.00 0.00 85 1015.4
20260904205953 73 0 0.0 0.0 0.00 0.00 0.00 84 1015.7
20260904205453 73 0 0.0 0.0 0.00 0.00 0.00 83 1015.7
20260904204953 74 0 0.0 0.0 0.00 0.00 0.00 81 1015.8
20260904204453 77 0 0.0 0.0 0.00 0.00 0.00 78 1016.1
20260904203953 80 0 0.0 0.0 0.00 0.00 0.00 72 1017.1
20260904203453 84 0 0.0 0.0 0.00 0.00 0.00 64 1017.1
20260904202952 89 0 0.0 0.0 0.00 0.00 0.00 58 1016.2
20260904202453 94 0 0.0 0.0 0.00 0.00 0.00 54 1015.9
20260904201453 95 0 0.0 0.0 0.00 0.00 0.00 52 1014.9
20260904200953 95 0 0.0 0.0 0.00 0.00 0.00 52 1014.9
20260904200453 95 0 0.0 0.0 0.00 0.00 0.00 51 1014.8
20260904195953 96 0 0.0 0.0 0.00 0.00 0.00 52 1014.7
20260904195453 95 0 0.0 0.0 0.00 0.00 0.00 53 1014.6
20260904194953 95 0 0.0 0.0 0.00 0.00 0.00 52 1014.7
20260904194452 95 0 0.0 0.0 0.00 0.00 0.00 54 1014.9
20260904193453 95 0 0.0 0.0 0.00 0.00 0.00 52 1015.0
20260904192953 95 0 0.0 0.0 0.00 0.00 0.00 54 1014.9
20260904192453 94 0 0.0 0.0 0.00 0.00 0.00 52 1014.7
20260904190953 94 0 0.0 0.0 0.00 0.00 0.00 55 1014.9
20260904185953 94 0 0.0 0.0 0.00 0.00 0.00 54 1015.0
20260904184953 94 0 0.0 0.0 0.00 0.00 0.00 54 1015.2
20260904184453 94 0 0.0 0.0 0.00 0.00 0.00 56 1015.2
20260904183953 93 0 0.0 0.0 0.00 0.00 0.00 53 1015.3
20260904183453 93 0 0.0 0.0 0.00 0.00 0.00 56 1015.4
20260904182953 93 0 0.0 0.0 0.00 0.00 0.00 56 1015.5
20260904181953 93 0 0.0 0.0 0.00 0.00 0.00 54 1015.6
20260904181453 93 0 0.0 0.0 0.00 0.00 0.00 57 1015.6
20260904180453 93 0 0.0 0.0 0.00 0.00 0.00 55 1015.7
20260904175954 93 0 0.0 0.0 0.00 0.00 0.00 55 1015.7
20260904174953 93 0 0.0 0.0 0.00 0.00 0.00 56 1015.9
20260904174453 93 0 0.0 0.0 0.00 0.00 0.00 56 1016.0
20260904173953 93 0 0.0 0.0 0.00 0.00 0.00 57 1016.3
20260904173453 93 0 0.0 0.0 0.00 0.00 0.00 56 1016.4
20260904172953 93 0 0.0 0.0 0.00 0.00 0.00 56 1016.4
20260904171953 93 0 0.0 0.0 0.00 0.00 0.00 59 1016.5
20260904170953 92 0 0.0 0.0 0.00 0.00 0.00 59 1016.6
20260904170453 92 0 0.0 0.0 0.00 0.00 0.00 57 1016.5
20260904165953 92 0 0.0 0.0 0.00 0.00 0.00 57 1016.5
20260904165453 92 0 0.0 0.0 0.00 0.00 0.00 58 1016.6
20260904164953 92 0 0.0 0.0 0.00 0.00 0.00 59 1016.6
20260904164453 92 0 0.0 0.0 0.00 0.00 0.00 58 1016.6
20260904163453 92 0 0.0 0.0 0.00 0.00 0.00 59 1016.6
20260904162953 91 0 0.0 0.0 0.00 0.00 0.00 61 1016.6
20260904162453 91 0 0.0 0.0 0.00 0.00 0.00 60 1016.6
20260904161453 91 0 0.0 0.0 0.00 0.00 0.00 61 1016.8
20260904160953 91 0 0.0 0.0 0.00 0.00 0.00 62 1016.7
20260904160452 90 0 0.0 0.0 0.00 0.00 0.00 62 1016.8
20260904155953 90 0 0.0 0.0 0.00 0.00 0.00 64 1016.9
20260904155453 90 0 0.0 0.0 0.00 0.00 0.00 62 1016.8
20260904154953 90 0 0.0 0.0 0.00 0.00 0.00 65 1016.9
20260904154453 90 0 0.0 0.0 0.00 0.00 0.00 64 1016.8
20260904153953 89 0 0.0 0.0 0.00 0.00 0.00 65 1016.8
20260904153453 89 0 0.0 0.0 0.00 0.00 0.00 67 1016.8
20260904152954 88 0 0.0 0.0 0.00 0.00 0.00 68 1016.7
20260904152453 88 0 0.0 0.0 0.00 0.00 0.00 67 1016.7
20260904151953 88 0 0.0 0.0 0.00 0.00 0.00 68 1016.6
20260904151454 87 0 0.0 0.0 0.00 0.00 0.00 68 1016.7
20260904150953 87 0 0.0 0.0 0.00 0.00 0.00 68 1016.6
20260904150453 87 0 0.0 0.0 0.00 0.00 0.00 69 1016.6
20260904145953 86 0 0.0 0.0 0.00 0.00 0.00 71 1016.6
20260904145454 86 0 0.0 0.0 0.00 0.00 0.00 73 1016.6
20260904144954 85 0 0.0 0.0 0.00 0.00 0.00 73 1016.7
20260904143953 84 0 0.0 0.0 0.00 0.00 0.00 74 1016.6
20260904143453 84 0 0.0 0.0 0.00 0.00 0.00 75 1016.5
20260904142953 84 0 0.0 0.0 0.00 0.00 0.00 75 1016.5
20260904142453 83 0 0.0 0.0 0.00 0.00 0.00 77 1016.6
20260904141953 83 0 0.0 0.0 0.00 0.00 0.00 77 1016.6
20260904140953 82 0 0.0 0.0 0.00 0.00 0.00 77 1016.5
20260904140453 82 0 0.0 0.0 0.00 0.00 0.00 79 1016.5
20260904135953 82 0 0.0 0.0 0.00 0.00 0.00 80 1016.5
20260904135453 82 0 0.0 0.0 0.00 0.00 0.00 80 1016.5
20260904134953 81 0 0.0 0.0 0.00 0.00 0.00 81 1016.6
20260904133953 81 0 0.0 0.0 0.00 0.00 0.00 81 1016.8
20260904133453 80 0 0.0 0.0 0.00 0.00 0.00 82 1016.7
20260904132953 80 0 0.0 0.0 0.00 0.00 0.00 83 1016.8
20260904132453 80 0 0.0 0.0 0.00 0.00 0.00 84 1016.7
20260904131953 79 0 0.0 0.0 0.00 0.00 0.00 85 1016.7
20260904130954 78 0 0.0 0.0 0.00 0.00 0.00 87 1016.7
20260904130453 78 0 0.0 0.0 0.00 0.00 0.00 88 1016.8
20260904125953 78 0 0.0 0.0 0.00 0.00 0.00 89 1016.8
20260904125453 77 0 0.0 0.0 0.00 0.00 0.00 89 1016.9
20260904124953 77 0 0.0 0.0 0.00 0.00 0.00 90 1016.9
20260904123953 76 0 0.0 0.0 0.00 0.00 0.00 91 1016.9
20260904123453 76 0 0.0 0.0 0.00 0.00 0.00 91 1016.8
20260904122453 76 0 0.0 0.0 0.00 0.00 0.00 92 1016.7
20260904121453 75 0 0.0 0.0 0.00 0.00 0.00 92 1016.7
20260904120953 74 0 0.0 0.0 0.00 0.00 0.00 92 1016.6
20260904120453 74 0 0.0 0.0 0.00 0.00 0.00 92 1016.6
20260904115953 74 0 0.0 0.0 0.00 0.00 0.00 92 1016.5
20260904114454 73 0 0.0 0.0 0.00 0.00 0.00 92 1016.3
20260904113453 72 0 0.0 0.0 0.00 0.00 0.00 92 1016.2
20260904112454 72 0 0.0 0.0 0.00 0.00 0.00 92 1016.0
20260904111953 72 0 0.0 0.0 0.00 0.00 0.00 92 1016.0
20260904111453 72 0 0.0 0.0 0.00 0.00 0.00 92 1015.9
20260904110953 72 0 0.0 0.0 0.00 0.00 0.00 92 1015.9
20260904105453 71 0 0.0 0.0 0.00 0.00 0.00 91 1015.5
20260904104953 72 0 0.0 0.0 0.00 0.00 0.00 91 1015.4
20260904104453 72 0 0.0 0.0 0.00 0.00 0.00 91 1015.2
20260904103954 72 0 0.0 0.0 0.00 0.00 0.00 91 1015.1
20260904103453 72 0 0.0 0.0 0.00 0.00 0.00 91 1015.2
20260904101953 72 0 0.0 0.0 0.00 0.00 0.00 92 1015.2
20260904100953 72 0 0.0 0.0 0.00 0.00 0.00 92 1015.3
20260904100453 72 0 0.0 0.0 0.00 0.00 0.00 91 1015.3
20260904095453 72 0 0.0 0.0 0.00 0.00 0.00 91 1015.2
20260904094953 72 0 0.0 0.0 0.00 0.00 0.00 91 1015.3
20260904094454 72 0 0.0 0.0 0.00 0.00 0.00 91 1015.2
20260904093953 72 0 0.0 0.0 0.00 0.00 0.00 92 1015.3
20260904093453 72 0 0.0 0.0 0.00 0.00 0.00 92 1015.3
20260904092954 72 0 0.0 0.0 0.00 0.00 0.00 92 1015.3
20260904092453 72 0 0.0 0.0 0.00 0.00 0.00 91 1015.3
20260904091953 72 0 0.0 0.0 0.00 0.00 0.00 91 1015.4
20260904091454 72 0 0.0 0.0 0.00 0.00 0.00 91 1015.3
20260904090953 72 0 0.0 0.0 0.00 0.00 0.00 91 1015.3
20260904090453 72 0 0.0 0.0 0.00 0.00 0.00 92 1015.3
20260904085954 72 0 0.0 0.0 0.00 0.00 0.00 92 1015.4
20260904084953 72 0 0.0 0.0 0.00 0.00 0.00 91 1015.3
20260904084453 72 0 0.0 0.0 0.00 0.00 0.00 91 1015.4
20260904082954 72 0 0.0 0.0 0.00 0.00 0.00 91 1015.4
20260904082453 72 0 0.0 0.0 0.00 0.00 0.00 91 1015.4
20260904080953 72 0 0.0 0.0 0.00 0.00 0.00 91 1015.4
20260904080453 72 0 0.0 0.0 0.00 0.00 0.00 91 1015.4
20260904075953 72 0 0.0 0.0 0.00 0.00 0.00 90 1015.5
20260904075453 72 0 0.0 0.0 0.00 0.00 0.00 90 1015.4
20260904074953 72 0 0.0 0.0 0.00 0.00 0.00 90 1015.5
20260904073453 73 0 0.0 0.0 0.00 0.00 0.00 90 1015.5
20260904072953 73 0 0.0 0.0 0.00 0.00 0.00 90 1015.6
20260904072453 73 0 0.0 0.0 0.00 0.00 0.00 90 1015.7
20260904071954 73 0 0.0 0.0 0.00 0.00 0.00 90 1015.7
20260904071453 73 0 0.0 0.0 0.00 0.00 0.00 90 1015.7
20260904070953 73 0 0.0 0.0 0.00 0.00 0.00 90 1015.7
20260904070454 73 0 0.0 0.0 0.00 0.00 0.00 90 1015.8
20260904065953 73 0 0.0 0.0 0.00 0.00 0.00 90 1015.8
20260904064953 73 0 0.0 0.0 0.00 0.00 0.00 90 1015.9
20260904064453 73 0 0.0 0.0 0.00 0.00 0.00 90 1016.0
20260904063953 73 0 0.0 0.0 0.00 0.00 0.00 90 1016.0
20260904063453 73 0 0.0 0.0 0.00 0.00 0.00 89 1015.9
20260904062453 73 0 0.0 0.0 0.00 0.00 0.00 89 1016.0
20260904061953 74 0 0.0 0.0 0.00 0.00 0.00 89 1016.0
20260904061454 74 0 0.0 0.0 0.00 0.00 0.00 89 1016.0
20260904060953 74 0 0.0 0.0 0.00 0.00 0.00 89 1016.0
20260904060453 74 0 0.0 0.0 0.00 0.00 0.00 88 1016.1
20260904055953 74 0 0.0 0.0 0.00 0.00 0.00 89 1016.2
20260904055454 74 0 0.0 0.0 0.00 0.00 0.00 89 1016.2
20260904054953 74 0 0.0 0.0 0.00 0.00 0.00 88 1016.2
20260904054453 74 0 0.0 0.0 0.00 0.00 0.00 88 1016.1
20260904053953 75 0 0.0 0.0 0.00 0.00 0.00 88 1016.2
20260904053453 75 0 0.0 0.0 0.00 0.00 0.00 88 1016.2
20260904052953 75 0 0.0 0.0 0.00 0.00 0.00 88 1016.3
20260904051954 75 0 0.0 0.0 0.00 0.00 0.00 88 1016.2
20260904051454 75 0 0.0 0.0 0.00 0.00 0.00 88 1016.2
20260904050953 75 0 0.0 0.0 0.00 0.00 0.00 88 1016.2
20260904050453 75 0 0.0 0.0 0.00 0.00 0.00 88 1016.1
20260904045954 75 0 0.0 0.0 0.00 0.00 0.00 88 1016.1
20260904045453 75 0 0.0 0.0 0.00 0.00 0.00 88 1016.2
20260904043954 75 0 0.0 0.0 0.00 0.00 0.00 88 1016.1
20260904043453 75 0 0.0 0.0 0.00 0.00 0.00 89 1016.2
20260904042953 75 0 0.0 0.0 0.00 0.00 0.00 88 1016.1
20260904041953 75 0 0.0 0.0 0.00 0.00 0.00 89 1016.1
20260904041455 75 0 0.0 0.0 0.00 0.00 0.00 88 1016.1
20260904040453 75 0 0.0 0.0 0.00 0.00 0.00 88 1016.0
20260904035957 75 0 0.0 0.0 0.00 0.00 0.00 88 1016.0
20260904035453 75 0 0.0 0.0 0.00 0.00 0.00 87 1016.0